Location: Augirein
(42.9320°N, 0.9181°E)
Time: 18:55:04
(UTC+00:00)

Cosmos 1953 Rocket - Pass Details

Date: 20 June 2021
Orbit: 605 x 634 km, 82.5° (Epoch: 23 July)

Event Time Altitude Azimuth Distance (km) Brightness Sun altitude
Exits shadow 01:10:26 42° 260° (W) 886 4.1 -21.6°
Maximum altitude 01:11:00 44° 282° (WNW) 855 4.2 -21.5°
Drops below altitude 10° 01:15:13 10° 356° (N) 1,995 7.1 -21.3°
Sets 01:17:34 0° 2° (N) 2,911 8.3 -21.1°
